Location: Betra
(48.4113°N, 8.6634°E)
Time: 17:22:01
(UTC+00:00)

Resurs 1-4 Rocket - Pass Details

Date: 10 August 2024
Orbit: 798 x 813 km, 98.7° (Epoch: 06 September)

Event Time Altitude Azimuth Distance (km) Brightness Sun altitude
Rises 00:53:44 0° 20° (NNE) 3,345 6.8 -23.5°
Reaches altitude 10° 00:56:14 10° 28° (NNE) 2,407 5.7 -23.4°
Maximum altitude 01:01:14 40° 98° (E) 1,177 3.0 -23.0°
Enters shadow 01:03:10 30° 142° (SE) 1,427 3.1 -22.9°
